EW3836 Weather Reports


time (UTC)temp
C
wind
direction
speed
KPH
gust
KPH
rain 1hr
cm
rain 24hr
cm
rain mn
cm
humidity
%
barometer
mb
20260510183053 18 305 0.0 0.0 0.00 0.00 0.00 53 1010.8
20260510181553 18 9 0.0 0.0 0.00 0.00 0.00 54 1010.8
20260510180104 18 273 0.0 0.0 0.00 0.00 0.00 58 1011.1
20260510174551 17 334 0.0 0.0 0.00 0.00 0.00 59 1011.1
20260510173050 19 333 0.0 0.0 0.00 0.00 0.00 57 1010.8
20260510171547 18 249 0.0 0.0 0.00 0.00 0.00 59 1010.8
20260510170046 17 316 0.0 0.0 0.00 0.00 0.00 59 1011.1
20260510164549 18 246 0.0 0.0 0.00 0.00 0.00 53 1011.2
20260510163051 17 328 0.0 0.0 0.00 0.00 0.00 55 1011.3
20260510161555 17 275 0.0 0.0 0.00 0.00 0.00 52 1011.2
20260510160053 17 243 0.0 0.0 0.00 0.00 0.00 52 1011.2
20260510154539 17 321 0.0 0.0 0.00 0.00 0.00 53 1011.6
20260510153044 17 330 0.0 0.0 0.00 0.00 0.00 49 1011.7
20260510151537 17 271 0.0 0.0 0.00 0.00 0.00 42 1011.8
20260510150036 17 290 0.0 0.0 0.00 0.00 0.00 47 1011.8
20260510144541 17 264 0.0 0.0 0.00 0.00 0.00 46 1011.7
20260510143044 17 246 0.0 0.0 0.00 0.00 0.00 44 1011.7
20260510141536 17 192 0.0 0.0 0.00 0.00 0.00 44 1011.5
20260510140029 16 185 0.0 0.0 0.00 0.00 0.00 46 1011.5
20260510134523 15 144 0.0 0.0 0.00 0.00 0.00 45 1011.3
20260510133032 15 136 0.0 0.0 0.00 0.00 0.00 45 1011.2
20260510131523 15 135 0.0 0.0 0.00 0.00 0.00 45 1011.3
20260510130119 15 154 0.0 0.0 0.00 0.00 0.00 44 1011.5
20260510124524 15 147 0.0 0.0 0.00 0.00 0.00 44 1011.3
20260510123017 15 165 0.0 0.0 0.00 0.00 0.00 44 1011.4
20260510121515 15 142 0.0 0.0 0.00 0.00 0.00 44 1011.4
20260510120014 16 120 0.0 0.0 0.00 0.00 0.00 43 1011.6
20260510114511 16 136 0.0 0.0 0.00 0.00 0.00 43 1011.7
20260510113012 15 128 0.0 0.0 0.00 0.00 0.00 44 1011.7
20260510111506 15 129 0.0 0.0 0.00 0.00 0.00 44 1011.9
20260510110005 15 144 0.0 0.0 0.00 0.00 0.00 44 1012.0
20260510104501 15 117 0.0 0.0 0.00 0.00 0.00 45 1012.0
20260510103104 15 144 0.0 0.0 0.00 0.00 0.00 45 1012.2
20260510101558 15 153 0.0 0.0 0.00 0.00 0.00 47 1012.3
20260510100057 15 113 0.0 0.0 0.00 0.00 0.00 47 1012.4
20260510094554 15 138 0.0 0.0 0.00 0.00 0.00 47 1012.6
20260510093103 15 121 0.0 0.0 0.00 0.00 0.00 47 1012.7
20260510091548 15 119 0.0 0.0 0.00 0.00 0.00 47 1012.8
20260510090050 15 132 0.0 0.0 0.00 0.00 0.00 47 1013.1
20260510084549 15 144 0.0 0.0 0.00 0.00 0.00 47 1013.2
20260510083048 15 129 0.0 0.0 0.00 0.00 0.00 47 1013.3
20260510081556 15 126 0.0 0.0 0.00 0.00 0.00 47 1013.4
20260510080036 15 130 0.0 0.0 0.00 0.00 0.00 46 1013.5
20260510074533 15 121 0.0 0.0 0.00 0.00 0.00 45 1013.5
20260510073037 15 119 0.0 0.0 0.00 0.00 0.00 45 1013.6
20260510071528 15 133 0.0 0.0 0.00 0.00 0.00 44 1013.7
20260510070025 15 116 0.0 0.0 0.00 0.00 0.00 41 1013.7
20260510064533 15 119 0.0 0.0 0.00 0.00 0.00 43 1013.6
20260510063033 15 119 0.0 0.0 0.00 0.00 0.00 42 1013.7
20260510061524 15 118 0.0 0.0 0.00 0.00 0.00 43 1013.9
20260510060034 14 125 0.0 0.0 0.00 0.00 0.00 47 1014.0
20260510054521 14 128 0.0 0.0 0.00 0.00 0.00 50 1014.2
20260510053025 14 128 0.0 0.0 0.00 0.00 0.00 52 1014.3
20260510051520 13 133 0.0 0.0 0.00 0.00 0.00 55 1014.5
20260510050011 13 134 0.0 0.0 0.00 0.00 0.00 57 1014.6
20260510044527 13 139 0.0 0.0 0.00 0.00 0.00 57 1014.7
20260510043010 13 135 0.0 0.0 0.00 0.00 0.00 56 1014.8
20260510041509 14 118 0.0 0.0 0.00 0.00 0.00 54 1015.0
20260510040008 15 86 0.0 0.0 0.00 0.00 0.00 51 1014.9
20260510034508 15 65 0.0 0.0 0.00 0.00 0.00 51 1014.8
20260510033007 14 44 0.0 0.0 0.00 0.00 0.00 51 1014.8
20260510031508 15 44 0.0 0.0 0.00 0.00 0.00 51 1014.8
20260510030008 15 44 0.0 0.0 0.00 0.00 0.00 49 1014.7
20260510024505 16 44 0.0 0.0 0.00 0.00 0.00 47 1014.7
20260510023004 17 44 0.0 0.0 0.00 0.00 0.00 43 1014.8
20260510021502 18 44 0.0 0.0 0.00 0.00 0.00 40 1015.0
20260510020002 19 44 0.0 0.0 0.00 0.00 0.00 39 1015.2
20260510014604 19 43 0.0 0.0 0.00 0.00 0.00 38 1015.2
20260510013058 20 24 0.0 0.0 0.00 0.00 0.00 38 1015.2
20260510011558 20 74 0.0 0.0 0.00 0.00 0.00 39 1015.4
20260510010056 20 42 0.0 0.0 0.00 0.00 0.00 39 1015.6
20260510004554 20 36 0.0 0.0 0.00 0.00 0.00 39 1015.6
20260510003101 20 65 0.0 0.0 0.00 0.00 0.00 43 1015.7
20260510001548 20 46 0.0 0.0 0.00 0.00 0.00 40 1015.7
20260510000052 20 37 0.0 0.0 0.00 0.00 0.00 42 1015.8
20260509234552 20 45 0.0 0.0 0.00 0.00 0.00 41 1016.0
20260509233038 20 169 0.0 0.0 0.00 0.00 0.00 41 1016.2
20260509231533 21 23 0.0 0.0 0.00 0.00 0.00 41 1016.4
20260509230031 21 299 0.0 0.0 0.00 0.00 0.00 42 1016.5
20260509224527 20 348 0.0 0.0 0.00 0.00 0.00 36 1016.6
20260509223025 19 19 0.0 0.0 0.00 0.00 0.00 38 1016.7
20260509221521 19 24 0.0 0.0 0.00 0.00 0.00 42 1016.7
20260509220019 18 316 0.0 0.0 0.00 0.00 0.00 42 1016.8
20260509214516 18 49 0.0 0.0 0.00 0.00 0.00 46 1017.0
20260509213015 18 347 0.0 0.0 0.00 0.00 0.00 42 1017.1
20260509211514 18 194 0.0 0.0 0.00 0.00 0.00 44 1017.3
20260509210018 18 45 0.0 0.0 0.00 0.00 0.00 46 1017.3
20260509204514 18 330 0.0 0.0 0.00 0.00 0.00 50 1017.4
20260509203017 18 260 0.0 0.0 0.00 0.00 0.00 45 1017.4
20260509201510 18 41 0.0 0.0 0.00 0.00 0.00 48 1017.5
20260509200007 17 134 0.0 0.0 0.00 0.00 0.00 50 1017.6
20260509194505 17 330 0.0 0.0 0.00 0.00 0.00 51 1017.8
20260509193002 16 261 0.0 0.0 0.00 0.00 0.00 45 1018.0
20260509191501 16 255 0.0 0.0 0.00 0.00 0.00 45 1018.2
20260509190105 15 257 0.0 0.0 2.77 0.00 0.00 50 1018.4
20260509184607 15 273 0.0 0.0 0.00 0.00 0.00 53 1018.5